Weather History for PHOG - September, 2013

Change the Weather History Date:

Friday, September 13, 2013

  Actual Average Record
Temperature  
Mean Temperature 84 °F 79 °F  
Max Temperature 91 °F 88 °F 93 °F (1977)
Min Temperature 76 °F 71 °F 61 °F (1953)
Degree Days  
Heating Degree Days 0 0  
Month to date heating degree days 0 0  
Since 1 July heating degree days 0 0  
Cooling Degree Days 19 14  
Month to date cooling degree days 203 184  
Year to date cooling degree days 2990 2726  
Growing Degree Days 32 (Base 50)    
Moisture  
Dew Point 70 °F    
Average Humidity 68    
Maximum Humidity 88    
Minimum Humidity 47    
Precipitation  
Precipitation 0.00 in 0.01 in 0.08 in (1952)
Month to date precipitation 0.09 0.15  
Year to date precipitation 8.75 10.85  
Snow  
Snow 0.00 in - - ()
Month to date snowfall 0.0  
Since 1 July snowfall 0.0  
Since 1 September snowfall 0.0  
Snow Depth 0.00 in    
Sea Level Pressure  
Sea Level Pressure 29.93 in    
Wind  
Wind Speed 16 mph (NE)    
Max Wind Speed 29 mph    
Max Gust Speed 36 mph    
Visibility 10 miles    
Events      
T = Trace of Precipitation, MM = Missing Value Source: NWS Daily Summary

Daily Weather History Graph

Daily Weather History Graph

Search for Another Location

Airport or City:

Trip Planner

Search our weather history database for the weather conditions in past years. The results will help you decide how hot, cold, wet, or windy it might be!

Date:

Astronomy

Sep. 13, 2013 Rise Set
Actual Time 6:12 AM HST 6:30 PM HST
Civil Twilight 5:50 AM HST 6:52 PM HST
Nautical Twilight 5:24 AM HST 7:18 PM HST
Astronomical Twilight 4:58 AM HST 7:44 PM HST
Moon 1:58 PM HST (9/13) 12:25 AM HST (9/13)
Length of Visible Light 13h 01m
Length of Day
12h 17m
Waxing Gibbous, 64% of the Moon is Illuminated
Sep 13
Waxing Gibbous
Sep 19
Full
Sep 26
Last Quarter
Oct 4
New
Oct 11
First Quarter

Hourly Weather History & Observations

Time (HST) Temp. Heat Index Dew Point Humidity Pressure Visibility Wind Dir Wind Speed Gust Speed Precip Events Conditions
12:54 AM 78.1 °F - 72.0 °F 81% 29.95 in 10.0 mi ENE 5.8 mph 17.3 mph N/A   Overcast
1:54 AM 77.0 °F - 73.0 °F 88% 29.93 in 10.0 mi NE 9.2 mph - N/A   Partly Cloudy
2:54 AM 77.0 °F - 72.0 °F 84% 29.92 in 10.0 mi ENE 10.4 mph - N/A   Overcast
3:54 AM 77.0 °F - 72.0 °F 84% 29.91 in 10.0 mi NE 13.8 mph - N/A   Scattered Clouds
4:54 AM 77.0 °F - 72.0 °F 84% 29.92 in 10.0 mi ENE 11.5 mph 17.3 mph N/A   Unknown
5:54 AM 77.0 °F - 71.1 °F 82% 29.93 in 10.0 mi NE 11.5 mph - N/A   Scattered Clouds
6:54 AM 78.1 °F - 73.0 °F 84% 29.94 in 10.0 mi NE 13.8 mph - N/A   Scattered Clouds
7:54 AM 81.0 °F 85.8 °F 73.0 °F 77% 29.95 in 10.0 mi NE 15.0 mph 21.9 mph N/A   Scattered Clouds
8:54 AM 84.0 °F 87.8 °F 69.1 °F 61% 29.96 in 10.0 mi ENE 20.7 mph 25.3 mph N/A   Partly Cloudy
9:54 AM 86.0 °F 89.4 °F 68.0 °F 55% 29.96 in 10.0 mi NE 19.6 mph 25.3 mph N/A   Scattered Clouds
10:54 AM 87.1 °F 90.6 °F 68.0 °F 53% 29.94 in 10.0 mi NE 19.6 mph 25.3 mph N/A   Scattered Clouds
11:54 AM 89.1 °F 92.1 °F 66.9 °F 48% 29.91 in 10.0 mi ENE 20.7 mph 28.8 mph N/A   Partly Cloudy
12:54 PM 89.1 °F 93.7 °F 69.1 °F 52% 29.89 in 10.0 mi NE 25.3 mph 32.2 mph N/A   Scattered Clouds
1:54 PM 88.0 °F 92.9 °F 70.0 °F 55% 29.88 in 10.0 mi NE 26.5 mph 34.5 mph N/A   Scattered Clouds
2:54 PM 87.1 °F 91.3 °F 69.1 °F 55% 29.88 in 10.0 mi NE 25.3 mph 33.4 mph N/A   Partly Cloudy
3:54 PM 86.0 °F 90.1 °F 69.1 °F 57% 29.88 in 10.0 mi NE 23.0 mph 29.9 mph N/A   Partly Cloudy
4:54 PM 84.0 °F 87.8 °F 69.1 °F 61% 29.89 in 10.0 mi NE 21.9 mph - N/A   Partly Cloudy
5:54 PM 82.0 °F 84.5 °F 66.9 °F 60% 29.90 in 10.0 mi NE 16.1 mph 23.0 mph N/A   Partly Cloudy
6:54 PM 79.0 °F - 69.1 °F 72% 29.93 in 10.0 mi NE 12.7 mph - N/A   Clear
7:54 PM 78.1 °F - 69.1 °F 74% 29.94 in 10.0 mi NE 9.2 mph - N/A   Scattered Clouds
8:54 PM 78.1 °F - 68.0 °F 71% 29.96 in 10.0 mi NNE 10.4 mph - N/A   Mostly Cloudy
9:54 PM 78.1 °F - 68.0 °F 71% 29.96 in 10.0 mi NNE 10.4 mph - N/A   Clear
10:54 PM 77.0 °F - 68.0 °F 74% 29.95 in 10.0 mi NNE 10.4 mph - N/A   Clear
11:54 PM 77.0 °F - 68.0 °F 74% 29.94 in 10.0 mi NE 6.9 mph - N/A   Clear